Regional Weather Roundup
Issued by NWS

Home | Current Version | Previous Version | Text Only | Print | Product List | Glossary On
Versions: 1 2 3 4 5 6 7 8 9 10 11 12 13 14 15 16 17 18 19 20 21 22 23 24 25 26 27 28 29 30 31 32 33 34 35 36 37 38 39 40 41 42 43 44 45 46 47 48 49 50
000
ASCA44 KEWX 230720
RWRMX

LATIN AMERICA AND CARIBBEAN REGIONAL WEATHER ROUNDUP
NATIONAL WEATHER SERVICE AUSTIN/SAN ANTONIO TX
200 AM CDT SUN JUL 23 2017

NOTE: "FAIR" INDICATED FEW OR NO CLOUDS BELOW 12,000 FEET WITH NO
SIGNIFICANT WEATHER AND/OR OBSTRUCTIONS TO VISIBILITY.

BAJA CALIFORNIA

CITY           SKY/WX    TMP DP  RH WIND       PRES   REMARKS
MEXICALI       CLEAR     86  70  58 SE9       29.74F HX  90
S.J. DEL CABO    N/A    N/A N/A N/A MISG        N/A
TIJUANA        CLEAR     66  59  77 NW5       29.93F

NORTHWESTERN MEXICO

CITY           SKY/WX    TMP DP  RH WIND       PRES   REMARKS
HERMOSILLO     CLOUDY    86  75  70 E6        29.88S HX  95

NORTHEASTERN MEXICO

CITY           SKY/WX    TMP DP  RH WIND       PRES   REMARKS
MONCLOVA         N/A    N/A N/A N/A MISG        N/A
MONTERREY      CLEAR     81  61  50 E10       29.91R
REYNOSA          N/A    N/A N/A N/A MISG        N/A
CD. VICTORIA     N/A    N/A N/A N/A MISG        N/A

WESTERN MEXICO

CITY           SKY/WX    TMP DP  RH WIND       PRES   REMARKS
AGUASCALIENTES CLEAR     63  54  72 S5        30.29F
COLIMA           N/A    N/A N/A N/A MISG        N/A
GUADALAJARA    CLOUDY    64  59  82 CALM      30.21F
MAZATLAN       MOCLDY    81  79  94 E3        29.90S
P. VALLARTA    CLOUDY    81  81 100 CALM      29.91F HX  91
URUAPAN          N/A    N/A N/A N/A MISG        N/A
ZACATECAS        N/A    N/A N/A N/A MISG        N/A

CENTRAL MEXICO

CITY           SKY/WX    TMP DP  RH WIND       PRES   REMARKS
CUERNAVACA       N/A    N/A N/A N/A MISG        N/A
MEXICO CITY    MOCLDY    61  52  72 W3        30.35F
MORELIA        PTCLDY    57  57 100 CALM      30.25F
POZA RICA        N/A    N/A N/A N/A MISG        N/A
S. LUIS POTOSI CLEAR     61  52  72 CALM      30.28S
TOLUCA         PTCLDY    50  48  93 CALM      30.40F

SOUTHERN MEXICO

CITY           SKY/WX    TMP DP  RH WIND       PRES   REMARKS
ACAPULCO       MOCLDY    81  75  83 NE5       29.92F
B. DE HUATULCO   N/A    N/A N/A N/A MISG        N/A
P. ESCONDIDO     N/A    N/A N/A N/A MISG        N/A
VERACRUZ       MOCLDY    79  77  94 W3        29.95F

YUCATAN PENINSULA

CITY           SKY/WX    TMP DP  RH WIND       PRES   REMARKS
CAMPECHE         N/A    N/A N/A N/A MISG        N/A
CANCUN         MOCLDY    82  79  89 E3        30.01F HX  93
CHETUMAL         N/A    N/A N/A N/A MISG        N/A
CD. DEL CARMEN   N/A    N/A N/A N/A MISG        N/A
COZUMEL        PTCLDY    81  77  89 E8        29.99S
MERIDA         PTCLDY    79  72  78 E13       30.00F
MINATITLAN       N/A    N/A N/A N/A MISG        N/A
TAPACHULA      CLOUDY    77  75  94 CALM      29.89F

CENTRAL AMERICA

CITY           SKY/WX    TMP DP  RH WIND       PRES   REMARKS

CARIBBEAN

CITY           SKY/WX    TMP DP  RH WIND       PRES   REMARKS
KINGSTON       PTCLDY    82  73  74 N7        29.94S
NASSAU         MOCLDY    82  75  78 E5        30.06F
SAN JUAN       LGT RAIN  82  77  83 SE6       30.00F HX  91
SANTO DOMINGO  PTCLDY    77  75  94 N5        29.97F
ST. CROIX      PTCLDY    82  77  83 E10       30.00S HX  91
ST. THOMAS     PTCLDY    82  79  89 E6          N/A  HX  93

$$





USA.gov is the U.S. government's official web portal to all federal, state and local government web resources and services.